DW8097 Weather Reports


time (UTC)temp
F
wind
direction
speed
knots
gust
knots
rain 1hr
in
rain 24hr
in
rain mn
in
humidity
%
barometer
mb
20260507103040 35 197 0.0 1.7 0.00 0.00 0.00 71 1012.7
20260507101543 36 197 0.0 1.7 0.00 0.00 0.00 66 1012.8
20260507100036 37 220 0.0 1.7 0.00 0.00 0.00 64 1012.7
20260507094540 38 244 0.0 0.9 0.00 0.00 0.00 66 1012.9
20260507093034 39 245 0.0 1.7 0.00 0.00 0.00 63 1013.0
20260507091628 38 225 1.7 4.3 0.00 0.00 0.00 64 1012.9
20260507090057 38 257 0.9 3.5 0.00 0.00 0.00 65 1012.9
20260507084556 38 171 1.7 3.5 0.00 0.00 0.00 65 1013.0
20260507083053 40 193 0.0 0.9 0.00 0.00 0.00 63 1013.1
20260507081552 39 197 0.0 1.7 0.00 0.00 0.00 65 1013.1
20260507080051 39 165 0.9 1.7 0.00 0.00 0.00 63 1013.1
20260507074552 40 217 0.9 2.6 0.00 0.00 0.00 62 1013.1
20260507073021 41 204 0.0 0.9 0.00 0.00 0.00 60 1013.2
20260507071519 41 204 0.0 0.9 0.00 0.00 0.00 60 1013.4
20260507070051 42 204 0.0 1.7 0.00 0.00 0.00 61 1013.5
20260507064548 42 209 0.0 0.9 0.00 0.00 0.00 60 1013.7
20260507063048 40 209 0.0 1.7 0.00 0.00 0.00 64 1013.7
20260507061542 41 15 0.0 1.7 0.00 0.00 0.00 63 1013.7
20260507060050 40 15 0.0 0.0 0.00 0.00 0.00 64 1013.9
20260507054547 39 15 0.0 1.7 0.00 0.00 0.00 68 1014.0
20260507053040 37 297 0.0 0.9 0.00 0.00 0.00 68 1013.9
20260507051535 38 297 0.0 0.9 0.00 0.00 0.00 66 1013.9
20260507050032 38 221 0.0 0.9 0.00 0.00 0.00 67 1014.0
20260507044546 40 221 0.0 0.9 0.00 0.00 0.00 65 1014.1
20260507043026 39 220 0.0 0.9 0.00 0.00 0.00 68 1014.2
20260507041523 38 220 0.0 0.9 0.00 0.00 0.00 67 1014.4
20260507040029 38 220 0.0 0.9 0.00 0.00 0.00 67 1014.5
20260507034520 39 220 0.0 0.9 0.00 0.00 0.00 63 1014.5
20260507033049 40 220 0.0 0.9 0.00 0.00 0.00 62 1014.5
20260507031547 39 220 0.0 0.9 0.00 0.00 0.00 64 1014.6
20260507030045 40 209 0.9 2.6 0.00 0.00 0.00 62 1014.7
20260507024549 41 211 0.9 1.7 0.00 0.00 0.00 60 1014.7
20260507023038 42 217 0.9 2.6 0.00 0.00 0.00 58 1014.7
20260507021535 44 238 0.0 1.7 0.00 0.00 0.00 53 1014.7
20260507020042 46 268 0.0 0.9 0.00 0.00 0.00 49 1014.7
20260507014534 46 277 0.0 1.7 0.00 0.00 0.00 47 1014.8
20260507013032 46 290 0.0 1.7 0.00 0.00 0.00 47 1014.8
20260507011530 45 355 0.0 4.3 0.00 0.00 0.00 48 1014.7
20260507010059 44 327 2.6 5.2 0.00 0.00 0.00 47 1014.7
20260507004600 44 350 3.5 7.0 0.00 0.00 0.00 47 1014.7
20260507003056 44 317 0.9 6.1 0.00 0.00 0.00 48 1014.7
20260507001557 45 25 6.1 8.7 0.00 0.00 0.00 45 1014.7
20260507000055 46 351 2.6 7.8 0.00 0.00 0.00 45 1014.8
20260506234555 46 316 1.7 7.8 0.00 0.00 0.00 46 1014.7
20260506233052 46 320 2.6 8.7 0.00 0.00 0.00 46 1014.7
20260506231551 46 271 4.3 8.7 0.00 0.00 0.00 44 1014.8
20260506230049 46 345 4.3 7.8 0.00 0.00 0.00 44 1014.8
20260506224600 46 307 3.5 9.6 0.00 0.00 0.00 45 1015.1
20260506223045 45 5 5.2 10.4 0.00 0.00 0.00 44 1015.0
20260506221543 46 325 3.5 8.7 0.00 0.00 0.00 45 1015.0
20260506220041 45 360 7.0 11.3 0.00 0.00 0.00 44 1015.2
20260506214558 45 261 3.5 8.7 0.00 0.00 0.00 44 1015.2
20260506213043 45 262 4.3 8.7 0.00 0.00 0.00 44 1015.2
20260506211540 44 309 5.2 11.3 0.00 0.00 0.00 45 1015.4
20260506210040 46 261 3.5 11.3 0.00 0.00 0.00 44 1015.3
20260506204535 45 261 2.6 10.4 0.00 0.00 0.00 45 1015.4
20260506203005 45 325 4.3 13.0 0.00 0.00 0.00 45 1015.4
20260506201504 45 273 5.2 11.3 0.00 0.00 0.00 45 1015.5
20260506200034 44 332 5.2 10.4 0.00 0.00 0.00 45 1015.5
20260506194531 44 270 3.5 11.3 0.00 0.00 0.00 45 1015.5
20260506193029 44 33 6.1 13.9 0.00 0.00 0.00 45 1015.5
20260506191534 44 334 4.3 10.4 0.00 0.00 0.00 45 1015.6
20260506190028 44 311 4.3 13.9 0.00 0.00 0.00 46 1015.6
20260506184531 43 317 4.3 9.6 0.00 0.00 0.00 46 1015.6
20260506183031 43 319 6.1 10.4 0.00 0.00 0.00 46 1015.6
20260506183027 43 313 6.1 10.4 0.00 0.00 0.00 46 1015.6
20260506181524 43 319 4.3 11.3 0.00 0.00 0.00 47 1015.6
20260506180026 43 311 7.0 13.0 0.00 0.00 0.00 45 1015.6
20260506174521 43 297 6.1 10.4 0.00 0.00 0.00 45 1015.7
20260506173018 43 279 6.1 12.2 0.00 0.00 0.00 44 1015.7
20260506171513 44 355 8.7 13.0 0.00 0.00 0.00 43 1015.6
20260506170015 44 289 4.3 12.2 0.00 0.00 0.00 44 1015.6
20260506164508 45 302 4.3 8.7 0.00 0.00 0.00 44 1015.6
20260506163008 44 315 4.3 13.0 0.00 0.00 0.00 44 1015.6
20260506161607 44 287 5.2 12.2 0.00 0.00 0.00 45 1015.5
20260506160055 43 340 5.2 10.4 0.00 0.00 0.00 46 1015.5
20260506154612 43 340 3.5 9.6 0.00 0.00 0.00 47 1015.4
20260506153055 43 334 5.2 10.4 0.00 0.00 0.00 47 1015.3
20260506151532 43 355 2.6 9.6 0.00 0.00 0.00 49 1015.3
20260506150023 43 343 4.3 13.0 0.00 0.00 0.00 48 1015.4
20260506144522 44 355 5.2 13.0 0.00 0.00 0.00 47 1015.5
20260506143020 43 360 5.2 10.4 0.00 0.00 0.00 48 1015.4
20260506141520 43 310 4.3 10.4 0.00 0.00 0.00 50 1015.4
20260506140022 42 21 3.5 7.0 0.00 0.00 0.00 52 1015.4
20260506134513 40 318 2.6 5.2 0.00 0.00 0.00 55 1015.3
20260506133009 41 336 1.7 5.2 0.00 0.00 0.00 56 1015.2
20260506131515 41 313 0.9 3.5 0.00 0.00 0.00 57 1015.2
20260506130008 41 276 0.0 2.6 0.00 0.00 0.00 59 1015.2
20260506124502 40 32 0.0 2.6 0.00 0.00 0.00 61 1014.8
20260506123004 40 167 0.0 2.6 0.00 0.00 0.00 62 1014.7
20260506121559 39 360 0.0 1.7 0.00 0.00 0.00 64 1014.9
20260506120053 35 324 1.7 3.5 0.00 0.00 0.00 67 1014.4
20260506114557 33 355 0.9 2.6 0.00 0.00 0.00 69 1014.3
20260506113052 37 281 0.0 0.9 0.00 0.00 0.00 65 1014.1
20260506111551 34 281 0.0 0.0 0.00 0.00 0.00 70 1014.3
20260506110046 35 281 0.0 0.9 0.00 0.00 0.00 71 1014.2
20260506104545 35 281 0.0 0.9 0.00 0.00 0.00 68 1014.0